Location: *
(58.4167°N, 22.5000°E)
Time: 08:26:19
(UTC+00:00)

Cosmos 1184 Rocket - Pass Details

Date: 22 September 2019
Orbit: 411 x 426 km, 81.2° (Epoch: 23 October)

Event Time Altitude Azimuth Distance (km) Brightness Sun altitude
Exits shadow 18:48:45 30° 55° (NE) 809 3.9 -18.0°
Drops below altitude 10° 18:50:50 10° 28° (NNE) 1,536 5.7 -18.2°
Sets 18:52:58 0° 20° (NNE) 2,410 6.8 -18.4°
